FW6725 Weather Reports


time (UTC)temp
F
wind
direction
speed
knots
gust
knots
rain 1hr
in
rain 24hr
in
rain mn
in
humidity
%
barometer
mb
20260506062043 43 320 4.3 7.8 0.00 0.00 0.00 62 1011.7
20260506061043 43 290 4.3 8.7 0.00 0.00 0.00 62 1011.6
20260506051058 39 287 5.2 8.7 0.00 0.00 0.00 69 1010.9
20260506045036 38 265 5.2 8.7 0.00 0.00 0.00 72 1010.8
20260506044034 38 266 4.3 7.8 0.00 0.00 0.00 74 1010.6
20260506043034 37 268 4.3 7.0 0.00 0.00 0.00 75 1010.5
20260506042033 37 267 3.5 7.0 0.00 0.00 0.00 76 1010.4
20260506041031 36 266 4.3 6.1 0.00 0.00 0.00 77 1010.3
20260506040031 36 273 3.5 6.1 0.00 0.00 0.00 78 1010.2
20260506035050 35 270 4.3 7.0 0.00 0.00 0.00 79 1010.1
20260506034026 35 271 4.3 7.8 0.00 0.00 0.00 80 1010.0
20260506033027 34 266 4.3 7.8 0.00 0.00 0.00 81 1009.9
20260506032025 34 262 4.3 7.0 0.00 0.00 0.00 81 1009.7
20260506031023 34 257 5.2 7.8 0.00 0.00 0.00 82 1009.6
20260506030024 34 264 4.3 7.0 0.00 0.00 0.00 82 1009.6
20260506025023 33 270 3.5 7.0 0.00 0.00 0.00 83 1009.5
20260506024022 33 283 2.6 6.1 0.00 0.00 0.00 84 1009.4
20260506023020 33 284 2.6 7.0 0.00 0.00 0.00 84 1009.3
20260506022019 33 276 3.5 7.0 0.00 0.00 0.00 83 1009.2
20260506021038 33 265 4.3 6.1 0.00 0.00 0.00 82 1009.1
20260506020016 33 254 5.2 7.8 0.00 0.00 0.00 81 1009.0
20260506015017 33 255 4.3 7.8 0.00 0.00 0.00 80 1009.0
20260506014046 33 254 3.5 7.0 0.00 0.00 0.00 80 1008.9
20260506013104 33 259 3.5 6.1 0.00 0.00 0.00 80 1008.8
20260506012102 33 262 3.5 7.0 0.00 0.00 0.00 80 1008.7
20260506011043 33 264 4.3 7.8 0.00 0.00 0.00 80 1008.7
20260506010041 34 261 5.2 9.6 0.00 0.00 0.00 79 1008.6
20260506005039 34 263 5.2 9.6 0.00 0.00 0.00 78 1008.5
20260506004040 34 263 6.1 9.6 0.00 0.00 0.00 77 1008.5
20260506003038 34 263 5.2 8.7 0.00 0.00 0.00 77 1008.4
20260506002037 34 261 5.2 8.7 0.00 0.00 0.00 77 1008.3
20260506001037 34 263 5.2 8.7 0.00 0.00 0.00 77 1008.3
20260506000116 34 266 4.3 8.7 0.00 0.00 0.00 76 1008.2
20260505235034 34 264 5.2 7.8 0.00 0.00 0.00 76 1008.2
20260505234035 34 267 4.3 7.8 0.00 0.00 0.00 76 1008.1
20260505233033 34 264 5.2 9.6 0.00 0.00 0.00 76 1008.0
20260505232032 35 262 5.2 9.6 0.00 0.00 0.00 75 1008.0
20260505231030 35 261 6.1 8.7 0.00 0.00 0.00 75 1008.0
20260505230030 35 261 6.1 8.7 0.00 0.00 0.00 75 1008.0
20260505225029 35 262 5.2 8.7 0.00 0.00 0.00 74 1007.9
20260505224028 35 264 5.2 7.8 0.00 0.00 0.00 74 1007.8
20260505223027 35 265 4.3 7.8 0.00 0.00 0.00 73 1007.8
20260505222046 36 270 3.5 7.8 0.00 0.00 0.00 70 1007.8
20260505221024 36 272 4.3 9.6 0.00 0.00 0.00 70 1007.7
20260505220024 36 270 4.3 7.8 0.00 0.00 0.00 70 1007.7
20260505215022 37 269 6.1 9.6 0.00 0.00 0.00 69 1007.6
20260505214021 37 265 6.1 9.6 0.00 0.00 0.00 68 1007.5
20260505213021 37 265 6.1 9.6 0.00 0.00 0.00 68 1007.5
20260505212020 37 262 7.0 10.4 0.00 0.01 0.00 67 1007.4
20260505211020 37 262 7.0 10.4 0.00 0.03 0.00 66 1007.3
20260505210018 38 260 6.1 9.6 0.00 0.04 0.00 66 1007.2
20260505205017 38 258 6.1 8.7 0.00 0.04 0.00 65 1007.1
20260505204046 38 259 6.1 7.8 0.00 0.04 0.00 63 1006.9
20260505203046 39 260 6.1 9.6 0.00 0.04 0.00 61 1006.8
20260505202044 39 261 6.1 8.7 0.00 0.04 0.00 60 1006.8
20260505201043 39 262 6.1 9.6 0.00 0.04 0.00 59 1006.6
20260505200042 39 263 6.1 9.6 0.00 0.04 0.00 58 1006.5
20260505195042 40 259 6.1 9.6 0.00 0.04 0.00 58 1006.5
20260505194041 40 260 6.1 8.7 0.00 0.04 0.00 57 1006.5
20260505193040 40 260 6.1 8.7 0.00 0.04 0.00 56 1006.5
20260505192039 41 264 5.2 10.4 0.00 0.04 0.00 54 1006.4
20260505191037 41 265 5.2 9.6 0.00 0.04 0.00 53 1006.3
20260505190035 41 267 6.1 11.3 0.00 0.04 0.00 52 1006.2
20260505185035 42 271 7.0 12.2 0.00 0.04 0.00 51 1006.2
20260505184034 42 272 7.0 13.0 0.00 0.04 0.00 50 1006.0
20260505183033 43 263 7.0 11.3 0.00 0.04 0.00 50 1005.9
20260505182036 43 260 7.8 13.9 0.00 0.04 0.00 49 1005.8
20260505181031 43 256 7.8 12.2 0.00 0.04 0.00 48 1005.6
20260505180032 44 253 7.8 14.8 0.00 0.04 0.00 47 1005.5
20260505175030 44 249 8.7 13.9 0.00 0.04 0.00 44 1005.5
20260505174028 44 242 9.6 14.8 0.00 0.04 0.00 43 1005.4
20260505173027 45 249 9.6 15.6 0.00 0.04 0.00 41 1005.3
20260505172028 45 248 10.4 15.6 0.00 0.04 0.00 41 1005.2
20260505171025 46 246 9.6 15.6 0.00 0.04 0.00 40 1005.2
20260505170025 46 251 10.4 16.5 0.00 0.04 0.00 41 1005.2
20260505165024 47 250 11.3 20.9 0.00 0.04 0.00 39 1005.2
20260505164022 47 241 12.2 20.0 0.00 0.04 0.00 38 1005.1
20260505163022 47 241 11.3 19.1 0.00 0.04 0.00 38 1005.1
20260505162021 46 252 11.3 17.4 0.00 0.04 0.00 39 1005.0
20260505161020 47 253 10.4 18.2 0.00 0.04 0.00 38 1004.9
20260505153015 47 252 10.4 18.2 0.00 0.04 0.00 39 1004.7
20260505152046 47 247 12.2 17.4 0.00 0.04 0.00 39 1004.6
20260505151104 49 253 11.3 18.2 0.00 0.04 0.00 36 1004.6
20260505125031 50 258 8.7 16.5 0.00 0.04 0.00 39 1003.9
20260505124110 49 270 8.7 14.8 0.00 0.04 0.00 40 1003.9
20260505123028 49 274 7.0 14.8 0.00 0.04 0.00 41 1003.9
20260505122029 50 300 7.8 13.9 0.00 0.04 0.00 41 1003.7
20260505121027 51 263 7.8 13.9 0.00 0.04 0.00 39 1003.7
20260505120026 50 269 7.8 16.5 0.00 0.04 0.00 40 1003.6
20260505115024 48 274 8.7 16.5 0.00 0.04 0.00 41 1003.6
20260505114023 50 267 7.8 13.0 0.00 0.04 0.00 47 1003.5
20260505113024 48 290 7.8 15.6 0.00 0.04 0.00 47 1003.4
20260505112022 49 298 6.1 13.9 0.00 0.04 0.00 50 1003.4
20260505111021 47 289 7.8 16.5 0.00 0.05 0.00 53 1003.4
20260505102106 49 279 5.2 14.8 0.00 0.09 0.00 50 1002.6
20260505101044 49 299 7.8 14.8 0.00 0.10 0.00 52 1002.5
20260505100044 49 295 8.7 15.6 0.00 0.11 0.00 52 1002.4
20260505095104 48 300 8.7 19.1 0.00 0.12 0.00 56 1002.3
20260505094046 48 286 9.6 20.0 0.00 0.13 0.00 54 1002.1
20260505093041 50 272 10.4 20.0 0.00 0.14 0.00 47 1002.0
20260505092041 50 277 10.4 20.0 0.00 0.15 0.00 51 1001.8
20260505091100 49 288 8.7 18.2 0.00 0.15 0.00 54 1001.6
20260505090038 49 280 8.7 18.2 0.00 0.16 0.00 52 1001.4
20260505085037 51 260 12.2 20.0 0.00 0.17 0.00 50 1001.3
20260505084058 50 267 10.4 19.1 0.00 0.17 0.00 53 1001.1
20260505083036 50 262 8.7 17.4 0.00 0.17 0.00 56 1001.0
20260505082035 49 272 9.6 17.4 0.00 0.17 0.00 61 1000.9
20260505081033 50 257 10.4 17.4 0.00 0.17 0.00 58 1000.7
20260505080033 50 260 10.4 20.0 0.00 0.17 0.00 58 1000.6
20260505075031 51 247 11.3 18.2 0.00 0.17 0.00 58 1000.5
20260505074033 50 248 10.4 16.5 0.00 0.17 0.00 58 1000.4
20260505073031 50 250 12.2 20.0 0.00 0.17 0.00 58 1000.3
20260505072030 51 250 10.4 19.1 0.00 0.17 0.00 57 1000.2
20260505071029 51 244 11.3 17.4 0.00 0.17 0.00 59 1000.1